Location: Ferchesar
(52.6477°N, 12.4298°E)
Time: 08:01:36
(UTC+01:00)

Transit 4A - All Passes

Search period start: 02 December 2021 00:00
Search period end: 12 December 2021 00:00
Orbit: 866 x 978 km, 66.8° (Epoch: 01 December)

Date Brightness Start Highest point End Pass type
(mag) Time Alt. Az. Time Alt. Az. Time Alt. Az.
02 Dec - 00:18:58 10° NW 00:23:34 22° N 00:28:16 10° NE night (unlit)
02 Dec - 02:06:31 10° NW 02:11:54 30° NNE 02:17:23 10° E visible
02 Dec - 03:52:57 10° NW 03:59:12 78° NE 04:05:34 10° SE visible
02 Dec - 05:39:54 10° NW 05:45:05 28° WSW 05:50:21 10° SSW visible
02 Dec - 19:06:41 10° S 19:11:39 29° ESE 19:16:45 10° NE visible
02 Dec - 20:51:38 10° SW 20:57:33 71° NW 21:03:41 10° NE visible
02 Dec - 22:39:51 10° W 22:44:58 28° NNW 22:50:13 10° NE night (unlit)
03 Dec - 00:28:41 10° NW 00:33:20 22° N 00:38:05 10° NE night (unlit)
03 Dec - 02:15:53 10° NW 02:21:31 35° NNE 02:27:16 10° E visible
03 Dec - 04:02:16 10° NW 04:08:32 82° SW 04:14:54 10° SSE visible
03 Dec - 05:49:41 10° WNW 05:54:05 20° WSW 05:58:33 10° SSW visible
03 Dec - 19:15:17 10° S 19:20:43 40° ESE 19:26:20 10° NE visible
03 Dec - 21:01:08 10° WSW 21:06:57 55° NW 21:13:00 10° NE visible
03 Dec - 22:49:45 10° WNW 22:54:40 25° NNW 22:59:41 10° NE night (unlit)
04 Dec - 00:38:19 10° NW 00:43:06 23° N 00:47:58 10° ENE night (unlit)
04 Dec - 02:25:12 10° NW 02:31:05 42° NE 02:37:04 10° ESE visible
04 Dec - 04:11:38 10° NW 04:17:48 63° WSW 04:24:03 10° SSE visible
04 Dec - 05:59:54 10° WNW 06:03:02 14° WSW 06:06:11 10° SW visible
04 Dec - 17:43:13 10° ESE 17:44:52 11° E 17:46:30 10° E visible
04 Dec - 19:24:08 10° SSW 19:29:52 55° ESE 19:35:48 10° NE visible
04 Dec - 21:10:46 10° WSW 21:16:27 44° NW 21:22:19 10° NE visible
04 Dec - 22:59:38 10° WNW 23:04:22 23° N 23:09:14 10° NE night (unlit)
05 Dec - 00:47:51 10° NW 00:52:50 25° NNE 00:57:54 10° ENE night (unlit)
05 Dec - 02:34:30 10° NW 02:40:35 52° NE 02:46:46 10° ESE visible
05 Dec - 04:21:03 10° NW 04:26:59 47° WSW 04:33:01 10° S visible
05 Dec - 17:50:10 10° SE 17:53:44 17° ESE 17:57:23 10° ENE visible
05 Dec - 19:33:12 10° SSW 19:39:05 75° SE 19:45:11 10° NE visible
05 Dec - 21:20:30 10° W 21:26:00 36° NNW 21:31:39 10° NE visible
05 Dec - 23:09:29 10° NW 23:14:08 22° N 23:18:52 10° NE night (unlit)
06 Dec - 00:57:18 10° NW 01:02:32 28° NNE 01:07:51 10° E night (unlit)
06 Dec - 02:43:48 10° NW 02:50:01 66° NE 02:56:21 10° SE visible
06 Dec - 04:30:33 10° NW 04:36:06 34° WSW 04:41:44 10° S visible
06 Dec - 17:58:08 10° SSE 18:02:42 24° ESE 18:07:21 10° ENE visible
06 Dec - 19:42:26 10° SW 19:48:22 84° NW 19:54:32 10° NE visible
06 Dec - 21:30:19 10° W 21:35:35 31° NNW 21:41:02 10° NE visible
06 Dec - 23:19:16 10° NW 23:23:54 22° N 23:28:37 10° NE night (unlit)
07 Dec - 01:06:42 10° NW 01:12:10 32° NNE 01:17:46 10° E night (unlit)
07 Dec - 02:53:07 10° NW 02:59:23 84° NE 03:05:47 10° SE visible
07 Dec - 04:40:11 10° WNW 04:45:10 25° WSW 04:50:11 10° SSW visible
07 Dec - 18:06:33 10° S 18:11:43 33° ESE 18:17:02 10° NE visible
07 Dec - 19:51:50 10° SW 19:57:44 65° NW 20:03:51 10° NE visible
07 Dec - 21:40:11 10° WNW 21:45:15 27° NNW 21:50:26 10° NE visible
07 Dec - 23:28:57 10° NW 23:33:40 22° N 23:38:27 10° ENE night (unlit)
08 Dec - 01:16:02 10° NW 01:21:47 37° NNE 01:27:38 10° E night (unlit)
08 Dec - 03:02:26 10° NW 03:08:42 75° SW 03:15:03 10° SSE night (unlit)
08 Dec - 04:50:05 10° WNW 04:54:08 18° WSW 04:58:13 10° SW night (unlit)
08 Dec - 18:15:14 10° S 18:20:49 45° ESE 18:26:34 10° NE visible
08 Dec - 20:01:22 10° WSW 20:07:10 51° NW 20:13:10 10° NE visible
08 Dec - 21:50:06 10° WNW 21:54:58 24° NNW 21:59:56 10° NE visible
08 Dec - 23:38:33 10° NW 23:43:25 23° NNE 23:48:22 10° ENE night (unlit)
09 Dec - 01:25:21 10° NW 01:31:20 46° NE 01:37:24 10° ESE night (unlit)
09 Dec - 03:11:49 10° NW 03:17:56 57° WSW 03:24:08 10° SSE night (unlit)
09 Dec - 05:00:37 10° WNW 05:03:03 12° W 05:05:30 10° WSW night (unlit)
09 Dec - 16:42:17 10° SE 16:44:51 13° E 16:47:28 10° ENE visible
09 Dec - 18:24:10 10° SSW 18:29:59 62° ESE 18:36:00 10° NE visible
09 Dec - 20:11:03 10° WSW 20:16:40 41° NW 20:22:30 10° NE visible
09 Dec - 21:59:58 10° WNW 22:04:42 23° N 22:09:31 10° NE visible
09 Dec - 23:48:03 10° NW 23:53:08 26° NNE 23:58:19 10° ENE night (unlit)
10 Dec - 01:34:39 10° NW 01:40:48 57° NE 01:47:04 10° ESE night (unlit)
10 Dec - 03:21:16 10° NW 03:27:06 42° WSW 03:33:01 10° S night (unlit)
10 Dec - 16:49:45 10° SSE 16:53:45 19° ESE 16:57:51 10° ENE visible
10 Dec - 18:33:18 10° SSW 18:39:13 83° SE 18:45:23 10° NE visible
10 Dec - 20:20:49 10° W 20:26:15 34° NNW 20:31:51 10° NE visible
10 Dec - 22:09:48 10° NW 22:14:27 22° N 22:19:12 10° NE visible
10 Dec - 23:57:29 10° NW 00:02:49 29° NNE 00:08:15 10° E night (unlit)
11 Dec - 01:43:57 10° NW 01:50:13 72° NE 01:56:35 10° SE night (unlit)
11 Dec - 03:30:48 10° NW 03:36:12 31° WSW 03:41:39 10° S night (unlit)
11 Dec - 16:57:55 10° SSE 17:02:44 27° ESE 17:07:41 10° NE visible
11 Dec - 18:42:35 10° SW 18:48:33 77° NW 18:54:43 10° NE visible
11 Dec - 20:30:39 10° W 20:35:52 29° NNW 20:41:14 10° NE visible
11 Dec - 22:19:33 10° NW 22:24:13 22° N 22:28:59 10° NE visible
